COSMOS 1361

Satellite information

Favourite Embed

Satellite Type and Status

PAYLOADIN ORBIT

Key statistics

Satellite COSMOS 1361 at a glance.

Uptime

15885

Days in orbit

Revolutions

≈ 12.5

Per day

Orbit

LEO

Low Earth Orbit

Inclination

74.0

Latest

Satellite identification and parameters

Extended collection of information and parameters for COSMOS 1361.

Object identification

Identified? True

Debris? False

Object name: COSMOS 1361

International designator: 1982-040E

Object number (NORAD): 13164

Object ID (CCSDS): 13164

Country: COMMONWEALTH OF INDEPENDENT STATES (CIS)

Current information (Y/N): Y

RCS size: MEDIUM

Orbital parameters

Period: 115.366 minutes

Inclination: 74.0121 deg

SMA: 7850.142 km

Apoapsis: 1482.824 km

Periapsis: 1461.191 km

RAAN: 328.5912 deg

Eccentricy: 0.0013779

Argument of periapsis: 158.7567 deg

Mean anomaly: 319.8838 deg

Mean motion: 12.48206573 rev/day

Mean motion (dot): 0.00000014 rev/day2

B* drag term: 0.00020323 1/REarth

Two-line elements (TLE)

Creation date: Oct. 31, 2025, 6:16 p.m.

Reference frame: TEME

Reference center: EARTH

Epoch: Oct. 31, 2025, 1:12 p.m. UTC

TLE line 0: 0 COSMOS 1361

TLE line 1: 1 13164U 82040E 25304.55053897 .00000014 00000-0 20323-3 0 9993

TLE line 2: 2 13164 74.0121 328.5912 0013779 158.7567 319.8838 12.48206573981587

Live tracking on map

Real-time ground track for satellite COSMOS 1361.

In-orbit conjunctions

There are no conjunctions computed for COSMOS 1361, at the moment. Check back to stay up to date, as we update our databases every day.

Go to all conjunctions

Associated space launch

Military communications satellites

COSMOS 1361 was lifted into orbit during the mission ‘Kosmos-3M | Strela-1M 233-240’, on board a Kosmos-3M space rocket.

The launch took place on May 6, 1982, 6:07 p.m. from 132/2.

For more information about the launch, click the button.

Launch to space Kosmos-3M | Strela-1M 233-240
Kosmos-3M | Strela-1M 233-240

Agency: N/A

Status: Launch Successful

Launch date: May 6, 1982, 6:07 p.m. UTC

Rocket: Kosmos-3M

Launch pad: 132/2

Location: Plesetsk Cosmodrome, Russian Federation

...

Latest news about this satellite

There are no fresh news available about this satellite. Check back as we update our databases every day.


Newsletter sign-up

Weekly statistics, charts and insights to help you stay on top of the space industry.